Contact Us:
Email: info@sawbill.com
Phone: (218)663-7150
Fax: (218)663-7980
Mail: 4620 Sawbill Trail
Box 2129
Tofte, MN 55615


Powered by
Movable Type 3.15
 
Sawbill Weather History Archives: April 2015
Current Sawbill Weather History | « March 2015 | May 2015 »


Date

High
Temperature

Low
Temperature

Barometric
Pressure

Relative
Humidity 7AM

9 AM
Temperature

Moisture

Snow

4/29/15 56 30 30.12 74% 35 0
4/28/15 60 34 30.14 69% 37 0
4/27/15 60 34 30.16 64% 38 0
4/26/15 55 26 30.20 63% 38 0
4/25/15 49 26 30.17 42% 40 0
4/24/15 41 26 30.09 32% 37 0
4/23/15 38 21 30.08 65% 26 0
4/22/15 31 17 29.92 83% 20 0
4/21/15 31 21 29.78 86% 22 .35" 4"
4/20/15 34 28 29.62 76% 28 .1" 1"
4/19/15 40 32 29.64 95% 32 .49" .5"
4/18/15 52 35 29.94 86% 35 .35"
4/17/15 64 33 30.22 60% 38 0
4/16/15 59 32 30.14 74% 35 0
4/15/15 63 34 30.12 51% 42 0
4/14/15 57 32 30.24 51% 36 0
4/13/15 51 32 30.14 40% 36 Trace Trace
4/12/15 66 36 29.92 74% 42 .35"
4/11/15 58 37 29.92 46% 53 Trace
4/10/15 39 25 30.10 61% 34 0
4/9/15 37 29 29.92 76% 32 Trace
4/8/15 34 29 30.00 73% 33 Trace Trace
4/7/15 37 27 30.16 75% 29 .14" 1.5"
4/6/15 37 20 30.30 41% 20 0
4/5/15 33 18 30.14 45% 21 0
4/4/15 32 10 30.10 45% 18 0
4/3/15 29 16 30.08 45% 24 0
4/2/15 53 16 30.08 50% 16 Trace Trace
4/1/15 42 28 29.76 38% 38 0
 


Home I Trip Planning I Rentals and Outfitting I Reservations I Campgrounds I Sawbill Store I Sawbill News I Contact

© 1997 - 2017, Sawbill Canoe Outfitters, Inc. I Privacy Policy